[[{"header":{"parameterUnit":"m.s-1","parameterCategory":1,"la1":30.2991,"la2":30.254,"lo1":-89.0895,"lo2":-89.0444,"dy":0.0017,"dx":0.0017,"nx":28,"ny":28,"refTime":"2023-10-02T21:00:00:Z","depth":0,"parameterNumber":2,"parameterNumberName":"U-component_of_WINDS"},"data":[0,0,0,0,0,0,0,0,0,0,0,0,0,0,0,0,0,0,0,0,0,0,0,0,0,0,0,0,0,0,0,0,0,0,0,0,0,0,0,0,0,0,0,0,0,0,0,0,0,0,0,0,0,0,0,0,0,0,-5.9868,-5.9869,0,-5.9988,-5.999,-5.9991,-5.9842,-5.9837,-5.9831,-5.9826,-5.9947,-5.9955,-5.9964,0,0,0,0,0,0,0,0,0,0,0,0,0,-5.9508,-5.9515,-5.9868,-5.9869,-5.9871,-5.9988,-5.999,-5.9991,-5.9843,-5.9836,-5.983,-5.9824,-5.9945,-5.9954,-5.9964,0,0,0,0,0,0,0,0,0,0,0,0,0,-5.965,-5.9518,-5.9868,-5.9811,-5.9807,-5.9988,-5.999,-5.9992,-5.9845,-5.9836,-5.9828,-5.982,-5.9941,-5.9953,-5.9966,-6.0207,0,0,-6.0004,-6.0009,0,0,0,0,0,0,0,0,-5.9642,-5.9663,-5.9818,-5.9815,-5.9811,-5.9892,-5.9907,-6.0064,-5.9847,-5.983,-5.9826,-5.9816,-5.9935,-5.9948,-5.9988,-6.0213,-6.0218,-6.0005,-6.0013,-6.0018,-6.0021,0,0,0,0,0,0,0,-5.9632,-5.9657,-5.9915,-5.982,-5.9816,-5.9779,-5.979,-5.9936,-5.9927,-5.9831,-5.9821,-5.9837,-5.9932,-5.9977,-5.999,-6.022,-6.0005,-6.0016,-6.0023,-6.0028,-6.0649,-6.0657,0,0,0,0,0,0,-5.9629,-5.965,-5.9911,-5.9919,-5.9705,-5.9792,-5.9805,-5.9874,-5.9925,-5.9925,-5.9844,-5.983,-5.9959,-5.9976,-5.9994,-6.028,-6.0018,-6.003,-6.0037,-6.064,-6.0651,-6.066,0,0,0,0,0,0,-5.9622,-5.9654,-5.9907,-5.9782,-5.9811,-5.9807,-5.9887,-5.9881,-5.9925,-5.9935,-5.9932,-5.9891,-5.9954,-5.9976,-6.0155,-6.0282,-6.0035,-6.0047,-6.0629,-6.0643,-6.0655,-6.0854,0,0,0,0,0,0,-5.9613,-5.9652,-5.9744,-5.9785,-5.9818,-6.0067,-5.9894,-5.9889,-5.9948,-5.993,-5.9979,-5.9979,-5.9949,-6.0138,-6.0168,-6.0295,-6.0056,-6.0618,-6.0635,-6.0651,-6.0836,-6.0873,-6.0904,0,0,0,0,0,-5.96,-5.9795,-5.975,-5.9782,-5.9933,-6.0075,-6.0094,-6.0056,-5.9959,-6.0051,-6.0057,-5.9977,-6.0264,-6.0157,-6.019,-6.0323,-6.0609,-6.063,-6.065,-6.0821,-6.0866,-6.0903,0,0,0,0,0,0,-5.9768,-5.9799,-5.9749,-5.9963,-6.0018,-6.0049,-6.0164,-6.0104,-6.0187,-6.0167,-6.0115,-6.0128,-6.0319,-6.0338,-6.0219,-6.0559,-6.042,-6.0448,-6.0539,-6.0582,-6.0615,-6.0606,-6.0067,0,0,0,0,0,-5.983,-5.9943,-5.9964,-6.015,-6.018,-6.0169,-6.0228,-6.0195,-6.0249,-6.0271,-6.029,-6.0345,-6.0447,-6.0515,-6.061,-6.0839,-6.0847,-6.0946,-6.098,-6.1008,-6.1032,-6.1155,-6.1199,-6.0727,-6.0727,-6.0726,0,0,-5.9958,-5.999,-6.0064,-6.0185,-6.0223,-6.0341,-6.0189,-6.0319,-6.0406,-6.029,-6.0461,-6.0478,-6.0535,-6.0741,-6.0832,-6.0763,-6.1165,-6.1033,-6.1056,-6.1065,-6.118,-6.1225,-6.1265,-6.074,-6.0738,-6.0736,0,0,-6.0253,-6.0289,-6.0448,-6.049,-6.0551,-6.0542,-6.058,-6.0622,-6.0629,-6.08,-6.0716,-6.0818,-6.0995,-6.104,-6.1086,-6.1401,-6.1331,-6.1433,-6.161,-6.173,-6.1767,-6.18,-6.1912,-6.1953,-6.1457,-6.1458,-6.1458,0,-6.0405,-6.058,-6.0537,-6.0675,-6.0731,-6.0633,-6.0794,-6.0837,-6.0925,-6.0965,-6.0887,-6.1108,-6.114,-6.1355,-6.1432,-6.1473,-6.1515,-6.1427,-6.1766,-6.1798,-6.1828,-6.1934,-6.1977,-6.147,-6.1469,-6.1467,-6.1466,0,-6.0764,-6.0887,-6.1009,-6.1098,-6.1167,-6.1316,-6.1296,-6.1371,-6.1332,-6.1332,-6.1507,-6.1543,-6.1643,-6.1691,-6.1654,-6.1902,-6.1857,-6.1774,-6.1633,-6.1886,-6.1985,-6.2025,-6.1487,-6.1483,-6.1479,-6.1476,0,0,-6.1166,-6.1231,-6.1277,-6.1316,-6.1377,-6.1471,-6.1616,-6.1715,-6.1781,-6.1845,-6.1965,-6.2118,-6.2042,-6.2094,-6.2061,-6.2167,-6.2415,-6.207,-6.2071,-6.2133,-6.269,-6.2753,-6.2801,-6.2369,-6.2377,-6.2383,-6.2685,0,-6.1461,-6.1712,-6.1679,-6.192,-6.2033,-6.1943,-6.2069,-6.212,-6.2124,-6.222,-6.2223,-6.2333,-6.2223,-6.2255,-6.2356,-6.2363,-6.2526,-6.2341,-6.248,-6.2485,-6.2468,-6.2852,-6.2918,-6.3202,-6.2724,-6.2731,-6.2735,0,-6.1838,-6.1919,-6.2172,-6.2216,-6.2262,-6.2376,-6.2465,-6.2559,-6.2615,-6.261,-6.2671,-6.2619,-6.2763,-6.2622,-6.282,-6.2696,-6.275,-6.2763,-6.2773,-6.2784,-6.2625,-6.2873,-6.3292,-6.3334,-6.2796,-6.2791,-6.2787,0,-6.2106,-6.2277,-6.2451,-6.2488,-6.2544,-6.2626,-6.2654,-6.2701,-6.2764,-6.2842,-6.2882,-6.2975,-6.3026,-6.31,-6.3075,-6.2974,-6.328,-6.3135,-6.3279,-6.328,-6.3347,-6.3343,-6.378,-6.3384,-6.3383,-6.3382,-6.3382,0,-6.2439,-6.2597,-6.2572,-6.2679,-6.2854,-6.2814,-6.2988,-6.3004,-6.3048,-6.3156,-6.3084,-6.3186,-6.3148,-6.3248,-6.323,-6.3397,-6.3421,-6.3421,-6.3414,-6.3427,-6.3428,-6.3462,-6.3441,-6.3394,-6.3391,-6.3389,-6.3387,0,-6.2767,-6.2756,-6.294,-6.2979,-6.2993,-6.312,-6.3153,-6.3253,-6.3252,-6.339,-6.342,-6.3418,-6.3533,-6.3516,-6.3643,-6.3631,-6.384,-6.3809,-6.3821,-6.3814,-6.3959,-6.3946,-6.4433,-6.4495,-6.406,-6.4064,-6.4068,0,-6.2979,-6.3099,-6.3152,-6.322,-6.3254,-6.3364,-6.3427,-6.3394,-6.3463,-6.3537,-6.3629,-6.3737,-6.3822,-6.401,-6.402,-6.4117,-6.4088,-6.4252,-6.4101,-6.4111,-6.409,-6.4083,-6.4094,-6.4281,-6.4286,-6.429,-6.4293,0,-6.3358,-6.3347,-6.3442,-6.3538,-6.3616,-6.3689,-6.3754,-6.3813,-6.3786,-6.3867,-6.3985,-6.4051,-6.4182,-6.4291,-6.4382,-6.4409,-6.4348,-6.4341,-6.4379,-6.4393,-6.4396,-6.4396,-6.3902,-6.4329,-6.4326,-6.4323,-6.4321,-6.432,-6.3634,-6.3736,-6.379,-6.3899,-6.3945,-6.4009,-6.4105,-6.4117,-6.4215,-6.4319,-6.4294,-6.4427,-6.448,-6.4598,-6.4635,-6.4738,-6.4677,-6.4733,-6.4747,-6.4761,-6.4779,-6.4381,-6.4755,-6.4754,-6.4753,-6.4752,-6.4751,0,-6.4008,-6.4039,-6.414,-6.4234,-6.432,-6.4256,-6.4326,-6.4402,-6.452,-6.4576,-6.4662,-6.4797,-6.4903,-6.4923,-6.5023,-6.5102,-6.5076,-6.513,-6.5123,-6.513,-6.4827,-6.4784,-6.5149,-6.5149,-6.5149,-6.5149,-6.5148,-6.5148,-6.4212,-6.4383,-6.438,-6.4573,-6.4602,-6.4733,-6.4778,-6.4836,-6.4881,-6.5036,-6.5124,-6.5136,-6.5178,-6.5281,-6.5375,-6.5378,-6.5418,-6.5483,-6.5475,-6.5191,-6.5151,-6.5113,-6.5072,-6.5492,-6.5493,-6.5769,-6.5772,-6.5774]},{"header":{"parameterUnit":"m.s-1","parameterCategory":1,"la1":30.2991,"la2":30.254,"lo1":-89.0895,"lo2":-89.0444,"dy":0.0017,"dx":0.0017,"nx":28,"ny":28,"refTime":"2023-10-02T21:00:00:Z","depth":0,"parameterNumber":3,"parameterNumberName":"V-component_of_WINDS"},"data":[0,0,0,0,0,0,0,0,0,0,0,0,0,0,0,0,0,0,0,0,0,0,0,0,0,0,0,0,0,0,0,0,0,0,0,0,0,0,0,0,0,0,0,0,0,0,0,0,0,0,0,0,0,0,0,0,0,0,-0.9384,-0.9384,0,-0.9346,-0.9346,-0.9346,-0.9343,-0.9343,-0.9344,-0.9344,-0.9307,-0.9306,-0.9305,0,0,0,0,0,0,0,0,0,0,0,0,0,-0.9453,-0.9452,-0.9384,-0.9384,-0.9383,-0.9347,-0.9346,-0.9346,-0.9343,-0.9343,-0.9344,-0.9344,-0.9308,-0.9306,-0.9305,0,0,0,0,0,0,0,0,0,0,0,0,0,-0.942,-0.9451,-0.9384,-0.9377,-0.9376,-0.9347,-0.9346,-0.9345,-0.9343,-0.9343,-0.9344,-0.9345,-0.9308,-0.9306,-0.9304,-0.9279,0,0,-0.9298,-0.9297,0,0,0,0,0,0,0,0,-0.9422,-0.9418,-0.9379,-0.9378,-0.9377,-0.935,-0.9357,-0.9323,-0.9343,-0.9356,-0.9344,-0.9345,-0.9321,-0.9318,-0.931,-0.9278,-0.9276,-0.9298,-0.9297,-0.9296,-0.9295,0,0,0,0,0,0,0,-0.9424,-0.9419,-0.9369,-0.9378,-0.9377,-0.9376,-0.9372,-0.935,-0.9335,-0.9355,-0.9354,-0.935,-0.9321,-0.9312,-0.9309,-0.9276,-0.9298,-0.9296,-0.9295,-0.9294,-0.9217,-0.9217,0,0,0,0,0,0,-0.9428,-0.9421,-0.9371,-0.9368,-0.9401,-0.9374,-0.937,-0.9358,-0.9336,-0.9333,-0.9349,-0.935,-0.9315,-0.9311,-0.9308,-0.9274,-0.9296,-0.9294,-0.9293,-0.9218,-0.9217,-0.9216,0,0,0,0,0,0,-0.9429,-0.9423,-0.9372,-0.9394,-0.9388,-0.9372,-0.9359,-0.9357,-0.9348,-0.9332,-0.9329,-0.9343,-0.9315,-0.931,-0.9285,-0.9273,-0.9293,-0.9291,-0.9219,-0.9218,-0.9217,-0.9209,0,0,0,0,0,0,-0.9431,-0.9424,-0.9415,-0.9394,-0.9387,-0.9351,-0.9358,-0.9356,-0.9344,-0.9344,-0.9325,-0.9322,-0.9315,-0.9288,-0.9283,-0.9271,-0.929,-0.922,-0.9219,-0.9217,-0.9211,-0.9208,-0.9206,0,0,0,0,0,-0.9434,-0.9415,-0.9414,-0.9408,-0.9375,-0.935,-0.9346,-0.9338,-0.9343,-0.9333,-0.9322,-0.9323,-0.9275,-0.9286,-0.928,-0.9267,-0.9221,-0.9219,-0.9217,-0.9212,-0.9209,-0.9206,0,0,0,0,0,0,-0.9436,-0.9413,-0.9411,-0.9386,-0.937,-0.935,-0.9337,-0.9335,-0.9318,-0.9319,-0.931,-0.9306,-0.928,-0.9271,-0.9283,-0.924,-0.9249,-0.9246,-0.9247,-0.9243,-0.9241,-0.9243,-0.9288,0,0,0,0,0,-0.9434,-0.9415,-0.9396,-0.9375,-0.9367,-0.9353,-0.9343,-0.9337,-0.9321,-0.9314,-0.9302,-0.9286,-0.9267,-0.9255,-0.9237,-0.9209,-0.9204,-0.9197,-0.9195,-0.9193,-0.919,-0.9172,-0.9168,-0.921,-0.921,-0.921,0,0,-0.9429,-0.9413,-0.9403,-0.9375,-0.9362,-0.9343,-0.9348,-0.9328,-0.9313,-0.9312,-0.9286,-0.9276,-0.9258,-0.923,-0.9218,-0.9222,-0.9177,-0.919,-0.9189,-0.9187,-0.9169,-0.9165,-0.9162,-0.9209,-0.9209,-0.921,0,0,-0.9409,-0.9397,-0.9376,-0.9362,-0.9342,-0.9332,-0.9327,-0.9307,-0.9299,-0.9274,-0.9271,-0.9253,-0.9222,-0.9207,-0.9196,-0.9167,-0.9166,-0.9162,-0.9149,-0.9131,-0.9128,-0.9125,-0.9112,-0.9108,-0.9159,-0.9159,-0.9159,0,-0.9406,-0.9376,-0.9367,-0.9346,-0.9332,-0.9328,-0.9306,-0.9294,-0.9269,-0.926,-0.9264,-0.9222,-0.921,-0.9178,-0.917,-0.9162,-0.9155,-0.9164,-0.9129,-0.9126,-0.9123,-0.9111,-0.9106,-0.9158,-0.9159,-0.9159,-0.9159,0,-0.9372,-0.9351,-0.9337,-0.9311,-0.9296,-0.9276,-0.9262,-0.9248,-0.9243,-0.9233,-0.9205,-0.9189,-0.9166,-0.9159,-0.9155,-0.9125,-0.9128,-0.9131,-0.914,-0.9118,-0.9107,-0.9102,-0.9158,-0.9158,-0.9158,-0.9158,0,0,-0.9355,-0.9321,-0.9316,-0.9302,-0.9278,-0.9261,-0.9239,-0.9215,-0.9203,-0.9185,-0.9165,-0.9137,-0.9138,-0.9125,-0.9119,-0.9104,-0.9079,-0.9109,-0.9108,-0.9102,-0.9042,-0.9038,-0.9033,-0.9078,-0.9077,-0.9076,-0.9042,0,-0.9332,-0.9291,-0.928,-0.9246,-0.9225,-0.9218,-0.9199,-0.9181,-0.917,-0.915,-0.9138,-0.9117,-0.9122,-0.9114,-0.9098,-0.9085,-0.9066,-0.9088,-0.9058,-0.9057,-0.9062,-0.9028,-0.9025,-0.8994,-0.9038,-0.9037,-0.9037,0,-0.93,-0.9278,-0.9241,-0.9216,-0.9207,-0.9189,-0.9164,-0.9146,-0.9125,-0.9118,-0.9101,-0.9096,-0.9071,-0.9081,-0.9046,-0.906,-0.9047,-0.9039,-0.9037,-0.9034,-0.9045,-0.9021,-0.8984,-0.8979,-0.903,-0.9031,-0.9031,0,-0.9289,-0.9251,-0.9223,-0.9212,-0.9182,-0.9169,-0.9156,-0.9136,-0.9121,-0.9099,-0.9089,-0.9066,-0.9053,-0.9034,-0.9022,-0.9031,-0.8987,-0.8996,-0.8979,-0.8979,-0.897,-0.897,-0.8928,-0.8964,-0.8964,-0.8964,-0.8964,0,-0.9263,-0.924,-0.9217,-0.92,-0.9173,-0.916,-0.9134,-0.9121,-0.9101,-0.9081,-0.9074,-0.9055,-0.904,-0.9019,-0.9009,-0.898,-0.8974,-0.8967,-0.8964,-0.8967,-0.8967,-0.8958,-0.8959,-0.8962,-0.8963,-0.8963,-0.8963,0,-0.9247,-0.9231,-0.9199,-0.9172,-0.9165,-0.9146,-0.9122,-0.9105,-0.9092,-0.9066,-0.9059,-0.9039,-0.9013,-0.8998,-0.8967,-0.896,-0.8926,-0.8926,-0.8933,-0.8931,-0.8914,-0.8915,-0.8863,-0.8855,-0.8897,-0.8897,-0.8896,0,-0.9232,-0.9213,-0.9183,-0.9168,-0.9154,-0.913,-0.9114,-0.9099,-0.9082,-0.9054,-0.9039,-0.9012,-0.899,-0.8948,-0.8931,-0.8905,-0.8903,-0.8887,-0.8899,-0.8901,-0.89,-0.8901,-0.8898,-0.8884,-0.8884,-0.8884,-0.8883,0,-0.9205,-0.9197,-0.9174,-0.9146,-0.9126,-0.9104,-0.9083,-0.9071,-0.9052,-0.9033,-0.9005,-0.8988,-0.8953,-0.8925,-0.8897,-0.8884,-0.888,-0.8879,-0.8873,-0.8875,-0.8879,-0.8874,-0.8925,-0.8881,-0.8881,-0.8881,-0.8881,-0.8881,-0.9188,-0.917,-0.9144,-0.9117,-0.9099,-0.9077,-0.9058,-0.9042,-0.9018,-0.8987,-0.898,-0.8949,-0.8925,-0.8887,-0.8872,-0.8848,-0.8851,-0.8844,-0.8841,-0.8839,-0.8837,-0.8883,-0.8843,-0.8843,-0.8843,-0.8843,-0.8843,0,-0.9159,-0.9141,-0.9117,-0.9085,-0.9063,-0.9059,-0.9034,-0.9016,-0.8989,-0.8966,-0.8943,-0.8909,-0.8881,-0.886,-0.8831,-0.8816,-0.8813,-0.8809,-0.8809,-0.8805,-0.8837,-0.8844,-0.8811,-0.8811,-0.8811,-0.8811,-0.8811,-0.8811,-0.9142,-0.911,-0.9098,-0.9056,-0.9038,-0.9007,-0.8993,-0.8972,-0.8954,-0.8915,-0.8891,-0.8877,-0.8855,-0.8823,-0.8797,-0.8791,-0.878,-0.8776,-0.877,-0.88,-0.8804,-0.8807,-0.8813,-0.8774,-0.8774,-0.874,-0.874,-0.8739]}]]